Other Public Products
Issued by NWS Grand Forks, ND

Home | Current Version | Previous Version | Graphics & Text | Print | Product List | Glossary On
Versions: 1 2 3 4 5 6 7 8 9 10 11 12 13 14 15 16 17 18 19 20 21 22 23 24 25 26 27 28 29 30 31 32 33 34 35 36 37 38 39 40 41 42 43 44 45 46 47 48 49 50
000
FPUS83 KFGF 301010
OPUFGF
PRAIRIE TO PINES WEATHER ROUNDUP
NATIONAL WEATHER SERVICE EASTERN NORTH DAKOTA/GRAND FORKS ND
500 AM CDT TUE JUN 30 2015

 **SATELLITE DATA USED TO AUGMENT SKY COVER AT AUTOMATED STATIONS**
 *****  WEATHER ACROSS EASTERN NORTH DAKOTA  *****

CITY           SKY/WX    TMP DP  RH WIND       PRES   REMARKS
GRAND FORKS    PTCLDY    54  53  97 NW5       29.94R FOG
GRAND FORKS AF PTCLDY    55  54  94 N3        29.95R FOG
GRAND CITY NWS   N/A     57 N/A N/A N2          N/A
BUXTON         NOT AVBL
DEVILS LAKE    PTCLDY    57  54  88 E6        29.94F
FARGO          PTCLDY    58  55  90 NE5       29.93R FOG
WAHPETON ARPT  MOSUNNY   59  55  88 NE5       29.93R
$$

 *****  WEATHER ACROSS CENTRAL AND WESTERN NORTH DAKOTA  *****

CITY           SKY/WX    TMP DP  RH WIND       PRES   REMARKS
JAMESTOWN      MOCLDY    61  58  90 CALM      29.95R
BISMARCK       CLOUDY    68  64  87 NE9       29.95R
MINOT          CLOUDY    65  61  87 E6        29.93F
MINOT AFB      CLOUDY    65  65 100 SE6       29.93F
GARRISON         N/A     68  64  87 VRB5      29.94F
WILLISTON      CLOUDY    70  59  68 NE6       29.94S HAZE
DICKINSON      CLOUDY    68  60  75 NE7       29.94S
HETTINGER      CLOUDY    66  60  81 E16       29.93S
$$

 *****  OTHER OBSERVATIONS NORTHEAST NORTH DAKOTA  *****

CITY           SKY/WX    TMP DP  RH WIND       PRES   REMARKS
WALHALLA       FAIR      57  57 100 MISG      29.97R FOG
LANGDON        FOG       55  55 100 NE6       29.97F VSB<1/4
CAVALIER       FAIR      57  57 100 NW3       29.96R FOG
GRAFTON        FAIR      57  57 100 N3        29.96R
CANDO          FOG       57  57 100 CALM      29.97S VSB 1
FORT TOTTEN    NOT AVBL
ROLLA          FOG       59  59 100 CALM      29.99S VSB<1/4
RUGBY          NOT AVBL
 ***** THE ABOVE OBSERVATIONS ARE NON NWS ARE NOT QUALITY
        CONTROLLED AND MAY MIS-REPORT RAIN FOR SNOW...
$$

 *****  OTHER OBSERVATIONS SOUTHEAST NORTH DAKOTA *****

CITY           SKY/WX    TMP DP  RH WIND       PRES   REMARKS
COOPERSTOWN    NOT AVBL
VALLEY CITY    CLOUDY    61  61 100 NE9       29.94S
OAKES            N/A     59  59 100 CALM      29.95S
GWINNER        NOT AVBL
SHEYENNE NWR     N/A     59  58  95 CALM      29.95S
BUFFALO        NOT AVBL
WYNDMERE       NOT AVBL
 ***** THE ABOVE OBSERVATIONS ARE NON NWS ARE NOT QUALITY
       CONTROLLED AND MAY MIS-REPORT RAIN FOR SNOW...
$$

  *****  WEATHER ACROSS NORTHERN MINNESOTA  *****

CITY           SKY/WX    TMP DP  RH WIND       PRES   REMARKS
FLAG ISLAND    PTCLDY    59  52  77 E3        29.96S
WARROAD        PTCLDY    57  54  88 SE6       29.97S
ROSEAU         CLEAR     54  48  82 CALM      29.97R HAZE
HALLOCK        FOG       54  52  94 CALM      29.95R VSB 1/2
THF RVR FALLS  CLEAR     57  55  94 NE7       29.96R
HALSTAD        NOT AVBL
FOSSTON        CLEAR     52  50  93 CALM      29.96R
BAUDETTE       CLEAR     53  50  89 E3        29.97R
WASKISH        PTCLDY    54  52  94 E5        29.96S
CROOKSTON      FOG       55  55 100 CALM      29.95S VSB 1/4
$$
  *****  WEATHER ACROSS CENTRAL AND WEST MINNESOTA  *****

CITY           SKY/WX    TMP DP  RH WIND       PRES   REMARKS
BEMIDJI        CLEAR     51  50  97 NE3       29.95R
PARK RAPIDS    CLEAR     57  55  93 N3        29.93S
WADENA         CLEAR     54  52  94 CALM      29.93R FOG
DETROIT LAKES  PTCLDY    59  57  94 CALM      29.95R
MOORHEAD       PTCLDY    55  55 100 N3        29.94R FOG
FERGUS FALLS   PTCLDY    63  61  94 CALM      29.93R
ELBOW LAKE     FAIR      63  60  90 NE6       29.92R
MORRIS MN      PTCLDY    61  59  94 CALM      29.91R FOG
STAPLES        CLEAR     55  55 100 CALM      29.93R FOG
WHEATON        PTCLDY    57  57 100 CALM      29.94R FOG
$$
  *****  WEATHER ELSEWHERE ACROSS MINNESOTA  *****

CITY           SKY/WX    TMP DP  RH WIND       PRES   REMARKS
DULUTH         CLOUDY    60  56  86 NE7       29.91R
INTRNTL FALLS  CLEAR     50  47  89 CALM      29.96R
ELY            CLOUDY    55  50  82 E8        29.95R
CLOQUET        MOCLDY    55  54  94 N6        29.91R
BRAINERD       CLEAR     56  55  97 CALM      29.92R
HIBBING        CLEAR     53  51  93 N5        29.93R
ALEXANDRIA     PTCLDY    61  57  87 NE5       29.94R
SAINT CLOUD    CLEAR     59  57  93 N3        29.90R FOG
MINNEAPOLIS    CLEAR     63  60  90 N9        29.86R
$$

  *****  WEATHER ACROSS SOUTH DAKOTA  *****

CITY           SKY/WX    TMP DP  RH WIND       PRES   REMARKS
SIOUX FALLS    CLOUDY    63  60  90 W5        29.94R
BROOKINGS      PTCLDY    59  55  88 W3        29.97R
WATERTOWN      CLOUDY    59  57  93 W5        29.95R FOG
HURON          CLOUDY    67  64  90 NE5       29.94R
SISSETON         N/A     60  58  92 NW5       29.92R
ABERDEEN       CLOUDY    65  62  90 N3        29.95R
MITCHELL       CLOUDY    68  65  90 CALM      29.94F
PIERRE         MOCLDY    69  62  78 E9        29.92R
MOBRIDGE       CLOUDY    68  66  93 SE9       29.88F
RAPID CITY     MOCLDY    69  55  60 W3        29.96F
$$

  *****  SOME WEATHER IN NEARBY STATES *****

CITY           SKY/WX    TMP DP  RH WIND       PRES   REMARKS
GLASGOW MT     NOT AVBL
GREAT FALLS MT PTCLDY    68  58  70 SW7       29.99S
CHEYENNE WY    PTCLDY    57  44  62 W9        30.22F
SCOTTSBLUFF NE MOCLDY    60  54  80 VRB5      30.07S
OMAHA NE       CLOUDY    68  64  87 SE3       29.90S
DES MOINES IA  CLOUDY    67  61  81 NW5       29.86S
DAVENPORT IA   PTCLDY    61  59  93 W5        29.82R FOG
CHICAGO IL     MOCLDY    63  60  90 W6        29.77R
EAU CLAIRE WI  PTCLDY    54  53  97 N5        29.84R FOG
LA CROSSE WI   MOCLDY    60  60 100 N3        29.83S FOG
$$

  *****  SOME NATIONAL WEATHER *****

CITY           SKY/WX    TMP DP  RH WIND       PRES   REMARKS
LA GUARDIA NY  PTCLDY    68  59  73 CALM      29.96R
RALEIGH NC     PTCLDY    69  62  78 CALM      29.93S
ATLANTA GA     PTCLDY    72  67  84 SW7       30.00S
NEW ORLEANS LA MOCLDY    78  72  81 SW9       30.02S
OKLAHOMA CITY  PTCLDY    69  64  84 W3        30.00R
ALBUQUERQUE NM PTCLDY    73  48  41 E14       30.23R
SALT LAKE CITY MOCLDY    79  53  40 S6        30.03F
LOS ANGELES CA PTCLDY    66  61  84 CALM      29.88S
BOISE ID       PTCLDY    80  55  42 W3        29.97R
SEATTLE WA     CLEAR     61  57  87 SW3       30.09S
$$

*** WEATHER ACROSS MANITOBA...SASKATCHEWAN AND ONTARIO ***
                ***ONTARIO***

CITY           SKY/WX    TMP DP  RH WIND       PRES   REMARKS
GERALDTON      PTCLDY    41  37  87 NE7       29.98R
THUNDER BAY    PTCLDY    50  41  71 N3        29.94R
SIOUX LOOKOUT  PTCLDY    48  46  93 NE3       30.00R
TORONTO        MOCLDY    61  57  88 NE5       29.84F
BIG TROUT LK   CLEAR     48  43  81 SW6       30.03S
PICKLE LAKE    NOT AVBL
DRYDEN         FOG       50  48  93 E3        30.00R VSB 1
KENORA         MOCLDY    54  52  94 CALM      30.00R
$$
                *** MANITOBA***

CITY           SKY/WX    TMP DP  RH WIND       PRES   REMARKS
BRANDON        CLOUDY    57  55  94 NE8       29.98F SMOKE
DAUPHIN        CLEAR     52  52 100 S3        29.99R FOG
ISLAND LAKE    PTCLDY    50  46  87 VRB2      30.02S
PILOT MOUND      N/A     55  55 100 E5          N/A
THE PAS        MOCLDY    57  55  94 S7        29.99R
THOMPSON       PTCLDY    48  46  93 VRB2      29.99F
WINNIPEG       PTCLDY    57  55  94 E5        29.97S
LYNN LAKE      MOCLDY    55  54  94 S5        29.96R
CHURCHILL      PTCLDY    48  43  81 W6        29.93S
GILLAM         PTCLDY    45  39  81 SW7       30.01S
$$
                ***SASKATCHEWAN***

CITY           SKY/WX    TMP DP  RH WIND       PRES   REMARKS
ESTEVAN          N/A     63  61  94 VRB2      29.93F SMOKE
KINDERSLEY     CLOUDY    61  57  88 NE7       29.98S SMOKE
LLOYDMINSTER   LGT RAIN  61  57  88 N5        29.98F
PRINCE ALBERT    N/A     57  55  94 CALM      29.96F SMOKE
REGINA         LGT RAIN  61  59  94 NW7       29.99R SMOKE



USA.gov is the U.S. government's official web portal to all federal, state and local government web resources and services.